TimeEDT,TemperatureF,Dew PointF,Humidity,Sea Level PressureIn,VisibilityMPH,Wind Direction,Wind SpeedMPH,Gust SpeedMPH,PrecipitationIn,Events,Conditions,WindDirDegrees,DateUTC
12:15 AM,51.8,51.8,100,30.31,10.0,ESE,5.8,-,N/A,,Overcast,110,2013-09-28 04:15:00
12:35 AM,51.8,51.8,100,30.31,10.0,ESE,5.8,-,N/A,,Overcast,110,2013-09-28 04:35:00
12:55 AM,51.8,51.8,100,30.31,7.0,ESE,4.6,-,N/A,,Overcast,120,2013-09-28 04:55:00
1:15 AM,51.8,51.8,100,30.31,7.0,ESE,4.6,-,N/A,,Overcast,110,2013-09-28 05:15:00
1:35 AM,51.8,51.8,100,30.30,7.0,ESE,4.6,-,N/A,,Overcast,120,2013-09-28 05:35:00
1:55 AM,51.8,51.8,100,30.30,4.0,SE,4.6,-,N/A,,Overcast,130,2013-09-28 05:55:00
2:15 AM,51.8,51.8,100,30.30,7.0,SE,5.8,-,N/A,,Overcast,130,2013-09-28 06:15:00
2:35 AM,51.8,51.8,100,30.30,2.0,SE,4.6,-,N/A,,Overcast,130,2013-09-28 06:35:00
2:55 AM,51.8,51.8,100,30.29,0.2,SE,4.6,-,N/A,Fog,Fog,130,2013-09-28 06:55:00
3:15 AM,51.8,51.8,100,30.30,0.2,SSE,4.6,-,N/A,Fog,Fog,150,2013-09-28 07:15:00
3:35 AM,51.8,51.8,100,30.30,0.2,SE,5.8,-,N/A,Fog,Fog,140,2013-09-28 07:35:00
3:55 AM,51.8,51.8,100,30.30,0.2,SE,3.5,-,N/A,Fog,Fog,140,2013-09-28 07:55:00
4:15 AM,51.8,51.8,100,30.30,0.2,ESE,3.5,-,N/A,Fog,Fog,120,2013-09-28 08:15:00
4:35 AM,51.8,51.8,100,30.30,0.2,SE,4.6,-,N/A,Fog,Fog,140,2013-09-28 08:35:00
4:55 AM,51.8,51.8,100,30.30,0.2,SSE,5.8,-,N/A,Fog,Fog,150,2013-09-28 08:55:00
5:15 AM,51.8,51.8,100,30.30,0.2,SSE,4.6,-,N/A,Fog,Fog,160,2013-09-28 09:15:00
5:35 AM,51.8,51.8,100,30.31,0.2,Calm,Calm,-,N/A,Fog,Fog,0,2013-09-28 09:35:00
5:55 AM,51.8,51.8,100,30.31,0.2,Calm,Calm,-,N/A,Fog,Fog,0,2013-09-28 09:55:00
6:15 AM,51.8,51.8,100,30.32,0.2,SSE,3.5,-,N/A,Fog,Fog,160,2013-09-28 10:15:00
6:35 AM,51.8,51.8,100,30.32,0.2,Calm,Calm,-,N/A,Rain,Rain,0,2013-09-28 10:35:00
6:55 AM,51.8,51.8,100,30.32,0.2,Calm,Calm,-,N/A,Fog,Fog,0,2013-09-28 10:55:00
7:15 AM,51.8,51.8,100,30.33,0.2,Calm,Calm,-,N/A,Rain,Light Rain,0,2013-09-28 11:15:00
7:35 AM,51.8,51.8,100,30.33,0.2,SE,4.6,-,N/A,,Drizzle,140,2013-09-28 11:35:00
7:55 AM,51.8,51.8,100,30.34,0.5,Calm,Calm,-,N/A,Fog,Fog,0,2013-09-28 11:55:00
8:15 AM,51.8,51.8,100,30.34,0.2,SE,3.5,-,N/A,Fog,Fog,130,2013-09-28 12:15:00
8:35 AM,51.8,51.8,100,30.34,0.5,SE,3.5,-,N/A,Fog,Fog,130,2013-09-28 12:35:00
8:55 AM,51.8,51.8,100,30.35,0.2,SE,3.5,-,N/A,Fog,Fog,130,2013-09-28 12:55:00
9:15 AM,51.8,51.8,100,30.35,1.2,ESE,4.6,-,N/A,,Overcast,110,2013-09-28 13:15:00
9:35 AM,51.8,51.8,100,30.36,1.8,SE,4.6,-,N/A,,Overcast,130,2013-09-28 13:35:00
9:55 AM,51.8,51.8,100,30.36,5.0,SE,3.5,-,N/A,,Overcast,140,2013-09-28 13:55:00
10:15 AM,51.8,51.8,100,30.37,7.0,Calm,Calm,-,N/A,,Overcast,0,2013-09-28 14:15:00
10:35 AM,51.8,51.8,100,30.37,10.0,East,3.5,-,N/A,,Overcast,90,2013-09-28 14:35:00
10:55 AM,51.8,51.8,100,30.37,10.0,Calm,Calm,-,N/A,,Overcast,0,2013-09-28 14:55:00
11:15 AM,53.6,51.8,94,30.37,10.0,East,5.8,-,N/A,,Overcast,90,2013-09-28 15:15:00
11:35 AM,51.8,51.8,100,30.37,1.0,ENE,8.1,-,N/A,,Overcast,70,2013-09-28 15:35:00
11:55 AM,51.8,51.8,100,30.37,7.0,ESE,4.6,-,N/A,,Overcast,110,2013-09-28 15:55:00
12:15 PM,51.8,51.8,100,30.37,10.0,ENE,5.8,-,N/A,,Overcast,60,2013-09-28 16:15:00
12:35 PM,53.6,50.0,88,30.37,10.0,ENE,5.8,-,N/A,,Overcast,60,2013-09-28 16:35:00
12:55 PM,53.6,50.0,88,30.37,10.0,ESE,4.6,-,N/A,,Overcast,120,2013-09-28 16:55:00
1:15 PM,53.6,50.0,88,30.36,10.0,ENE,3.5,-,N/A,,Overcast,70,2013-09-28 17:15:00
1:35 PM,53.6,50.0,88,30.36,10.0,ENE,4.6,-,N/A,,Overcast,60,2013-09-28 17:35:00
1:55 PM,53.6,50.0,88,30.35,10.0,East,5.8,-,N/A,,Overcast,80,2013-09-28 17:55:00
2:15 PM,53.6,50.0,88,30.34,10.0,ENE,5.8,-,N/A,,Overcast,60,2013-09-28 18:15:00
2:35 PM,55.4,48.2,77,30.33,10.0,East,3.5,-,N/A,,Overcast,100,2013-09-28 18:35:00
2:55 PM,55.4,48.2,77,30.33,10.0,Calm,Calm,-,N/A,,Overcast,0,2013-09-28 18:55:00
3:15 PM,55.4,46.4,72,30.33,10.0,North,4.6,-,N/A,,Overcast,10,2013-09-28 19:15:00
3:35 PM,55.4,46.4,72,30.32,10.0,ENE,5.8,-,N/A,,Overcast,70,2013-09-28 19:35:00
3:55 PM,55.4,46.4,72,30.32,10.0,Calm,Calm,-,N/A,,Overcast,0,2013-09-28 19:55:00
4:15 PM,55.4,48.2,77,30.32,10.0,ENE,5.8,-,N/A,,Overcast,60,2013-09-28 20:15:00
4:35 PM,53.6,46.4,77,30.32,10.0,ENE,5.8,-,N/A,,Overcast,70,2013-09-28 20:35:00
4:55 PM,53.6,48.2,82,30.32,10.0,ESE,3.5,-,N/A,,Overcast,110,2013-09-28 20:55:00
5:15 PM,53.6,48.2,82,30.32,10.0,Calm,Calm,-,N/A,,Overcast,0,2013-09-28 21:15:00
5:35 PM,53.6,48.2,82,30.32,10.0,Calm,Calm,-,N/A,,Overcast,0,2013-09-28 21:35:00
5:55 PM,53.6,48.2,82,30.32,10.0,Calm,Calm,-,N/A,,Overcast,0,2013-09-28 21:55:00
6:15 PM,53.6,48.2,82,30.32,10.0,East,4.6,-,N/A,,Mostly Cloudy,100,2013-09-28 22:15:00
6:35 PM,51.8,48.2,88,30.32,10.0,East,3.5,-,N/A,,Scattered Clouds,90,2013-09-28 22:35:00
6:55 PM,51.8,46.4,82,30.31,10.0,East,3.5,-,N/A,,Clear,100,2013-09-28 22:55:00
7:15 PM,50.0,46.4,87,30.31,10.0,East,5.8,-,N/A,,Clear,100,2013-09-28 23:15:00
7:35 PM,50.0,46.4,87,30.31,10.0,East,5.8,-,N/A,,Clear,100,2013-09-28 23:35:00
7:55 PM,50.0,46.4,87,30.30,10.0,ESE,5.8,-,N/A,,Clear,120,2013-09-28 23:55:00
8:15 PM,50.0,46.4,87,30.30,10.0,East,5.8,-,N/A,,Clear,100,2013-09-29 00:15:00
8:35 PM,48.2,46.4,93,30.30,10.0,ESE,5.8,-,N/A,,Clear,110,2013-09-29 00:35:00
8:55 PM,48.2,46.4,93,30.30,10.0,East,4.6,-,N/A,,Clear,100,2013-09-29 00:55:00
9:15 PM,48.2,46.4,93,30.30,10.0,ESE,4.6,-,N/A,,Clear,110,2013-09-29 01:15:00
9:35 PM,48.2,46.4,93,30.30,10.0,East,4.6,-,N/A,,Clear,100,2013-09-29 01:35:00
9:55 PM,48.2,46.4,93,30.30,10.0,East,3.5,-,N/A,,Clear,100,2013-09-29 01:55:00
10:15 PM,46.4,46.4,100,30.30,10.0,East,4.6,-,N/A,,Clear,90,2013-09-29 02:15:00
10:35 PM,46.4,46.4,100,30.30,7.0,East,3.5,-,N/A,,Clear,90,2013-09-29 02:35:00
10:55 PM,46.4,46.4,100,30.30,7.0,East,4.6,-,N/A,,Clear,90,2013-09-29 02:55:00
11:15 PM,46.4,46.4,100,30.29,5.0,East,4.6,-,N/A,,Clear,100,2013-09-29 03:15:00
11:35 PM,46.4,46.4,100,30.29,10.0,East,4.6,-,N/A,,Clear,100,2013-09-29 03:35:00
11:55 PM,46.4,46.4,100,30.29,10.0,East,4.6,-,N/A,,Scattered Clouds,100,2013-09-29 03:55:00